星链-30827 (STARLINK-30827 )

导读 | 星芒AI

STARLINK-30827 是 SpaceX 星链计划中的一颗低轨通信卫星,属于第 30 批发射的星链卫星群。该卫星于 2023 年发射,部署在约 550 公里的轨道高度,旨在为全球用户提供高速互联网服务。作为星链网络的一部分,它通过与其他卫星协同工作,实现低延迟、广覆盖的通信能力,支持偏远地区的网络接入。星链项目致力于构建全球卫星互联网系统,推动数字包容与技术创新。

基本信息
目录编号:
58195
目录名称:
STARLINK-30827
国际标识:
2023-167W
轨道中心:
EARTH
卫星名称:
星链-30827
卫星全名:
星链-30827 (STARLINK-30827 )
卫星状态:
在轨 (已飞行781 天)
发射日期:
2023-10-30 UTC
国别 :
美国 (US)
星等 :
--
轨道信息
数据来源 国际轨道数据
星历时间: 2025-12-19T08:53:39+0800
17小时前
查看轨道信息
半长轴: 6937.193km
偏心率: 0.0001093
轨道倾角: 43.003°
近地点辐角 257.374°
升交点赤经 224.124°
平近点角 102.698°
近地点: 558.297km
远地点: 559.815km
周期: 95.837分钟
每日圈数: 15.025437
详细信息
固有亮度:
5
最大亮度:
0.3
卫星平台:
Starlink v2.0 mini
覆盖范围:
全球
运营商:
太空探索技术公司
运营商所在国:
美国
制造商(研发单位):
太空探索技术公司
制造商所在国:
美国
使用方式:
暂无
卫星简介
星链(Starlink)计划是由太空探索技术公司(SpaceX)提出的一个巨型低轨卫星互联网星座项目,计划在2019年至2024年间在太空搭建由约1.2万颗卫星组成的“星链”网络,其中1584颗将部署在地球上空550千米处的近地轨道,并从2020年开始工作。该卫星仍在工作。
2D轨道图
3D轨道图
轨道高度分析图
轨道倾角分析图
轨道综合分析图
查看轨道综合分析图